Location: Shenandoah County Park
(38.9356°N, 78.4524°W)
Time: 18:13:35
(UTC-05:00)

A-11 Canister half - Pass Details

Date: 14 December 2023
Orbit: 1526 x 1682 km, 47.3° (Epoch: 01 March)

Event Time Altitude Azimuth Distance (km) Brightness Sun altitude
Rises 21:58:05 0° 298° (WNW) 4,937 12.1 -58.2°
Reaches altitude 10° 22:01:17 10° 300° (WNW) 3,942 11.5 -58.8°
Enters shadow 22:03:44 20° 301° (WNW) 3,199 10.9 -59.2°
Maximum altitude 22:11:28 83° 28° (NNE) 1,669 - -60.6°
Drops below altitude 10° 22:21:23 10° 117° (ESE) 3,840 - -62.4°
Sets 22:24:26 0° 119° (ESE) 4,804 - -62.9°
